Flag for Switzerland Weather past 2 weeks in Bellinzona, Ticino, Switzerland

Now
63 °F

Passing clouds.


Feels Like: 63 °F
Forecast: 67 / 76 °F
Wind: 2 mph from North

Location: Lugano Airport

Current Time: Jul 23, 2014 at 9:35:21 AM

Latest Report: Jul 23, 2014 at 7:20 AM


Visibility: N/A

Pressure: 29.86 "Hg

Humidity: 100%

Dew point: 63 °F

Location of BellinzonaLocation

Historic Weather in Bellinzona — Graph

°F

Bellinzona temperature yesterday

Maximum temperature yesterday: 79 °F (at 1:50 PM)
Minimum temperature yesterday: 64 °F (at 12:20 AM)
Average temperature yesterday: 70 °F

Past Weeks' High & Low Weather Summary

 TemperatureHumidityPressure
High88 °F (Jul 17, 3:50 PM)100% (Jul 8, 7:20 AM)30.15 "Hg (Jul 8, 7:20 AM)
Low37 °F (Jul 15, 8:50 AM)34% (Jul 9, 4:50 PM)29.68 "Hg (Jul 9, 2:50 PM)
Average70 °F75%29.92 "Hg
* Reported Jul 8 7:20 AM — Jul 23 7:20 AM, Bellinzona, Weather by CustomWeather, © 2014

Note: Actual official high and low records may vary slightly from our data, if they occured in-between our weather recording intervals... More about our weather records

Advertising

Bellinzona weather history for previous 24 hours

 ConditionsComfort  
Time TempWeatherWind HumidityBarometerVisibility
7:20 AM
Jul 23
63 °FPassing clouds.2 mph100%29.86 "HgN/A
6:50 AM63 °FPassing clouds.5 mph100%29.86 "HgN/A
6:20 AM63 °FPassing clouds.2 mph94%29.86 "HgN/A
5:50 AM63 °FClear.1 mph100%29.86 "Hg10 mi
5:20 AM63 °FClear.1 mph94%29.86 "Hg10 mi
4:50 AM63 °FClear.5 mph100%29.86 "Hg10 mi
4:20 AM63 °FClear.2 mph100%29.86 "Hg10 mi
3:50 AM64 °FClear.5 mph94%29.86 "Hg10 mi
3:20 AM64 °FClear.1 mph94%29.86 "Hg10 mi
2:50 AM64 °FClear.3 mph94%29.86 "Hg10 mi
2:20 AM66 °FClear.1 mph94%29.86 "Hg10 mi
1:50 AM66 °FMild.1 mph94%29.86 "HgN/A
6:50 PM
Jul 22
75 °FPassing clouds.5 mph69%29.80 "HgN/A
6:20 PM75 °FPartly sunny.3 mph74%29.80 "HgN/A
5:50 PM75 °FPartly sunny.5 mph74%29.80 "HgN/A
5:20 PM75 °FPartly sunny.7 mph74%29.80 "HgN/A
4:50 PM77 °FPartly sunny.7 mph69%29.80 "HgN/A
4:20 PM77 °FPartly sunny.7 mph69%29.80 "HgN/A
3:50 PM79 °FPartly sunny.7 mph61%29.80 "HgN/A
3:20 PM79 °FPartly sunny.9 mph65%29.80 "HgN/A
2:50 PM79 °FScattered clouds.8 mph65%29.80 "HgN/A
2:20 PM79 °FScattered clouds.8 mph61%29.80 "HgN/A
1:50 PM79 °FScattered clouds.6 mph58%29.80 "HgN/A
1:20 PM77 °FPassing clouds.3 mph69%29.80 "HgN/A
12:50 PM73 °FPassing clouds.3 mph69%29.80 "HgN/A
12:20 PM72 °FSunny.7 mph73%29.80 "Hg10 mi
11:50 AM70 °FScattered clouds.5 mph78%29.80 "HgN/A
11:20 AM70 °FPartly sunny.2 mph78%29.83 "HgN/A
10:50 AM68 °FPartly sunny.3 mph88%29.83 "Hg5 mi
10:20 AM66 °FPartly sunny.6 mph88%29.83 "Hg5 mi
9:50 AM66 °FSprinkles. Broken clouds.6 mph88%29.83 "Hg4 mi
9:20 AM68 °FSprinkles. Broken clouds.1 mph83%29.83 "Hg5 mi
Weather by CustomWeather, © 2014

See weather overviewHow to use our weather pages